User: anonymous
Location: Unspecified
(0.0000°N, 0.0000°E)
Time: 05:00:45
(UTC+00:00)
Language:

Landsat 7 - Orbit

View from above orbital plane
View from above orbital plane
View from above satellite
View from above satellite

Ground track
Ground track

The orbit data is extracted from the following two-line orbital elements,

1 25682U 99020A   14210.80046653  .00000122  00000-0  37082-4 0  4672
2 25682 098.2132 279.8445 0000966 051.5197 308.6076 14.57105216813192
Epoch (UTC): 29 July 2014 19:12:40
Eccentricity: 0.0000966
inclination: 98.2132°
perigee height: 702 km
apogee height: 703 km
right ascension of ascending node: 279.8445°
argument of perigee: 51.5197°
revolutions per day: 14.57105216
mean anomaly at epoch: 308.6076°
orbit number at epoch: 81319

The dashed part of the orbit path shows where the satellite is in the earth's shadow,  

DLR